owner,sensor,date,latitude,longitude,vertical_datum,sea_water_temperature,qcFlag
Shell,ioos:station:wmo:42851:1,2023-12-01T00:09:00Z,28.0373,-89.0373,9.6,22.7,11111222
Shell,ioos:station:wmo:42851:1,2023-12-01T00:19:00Z,28.0373,-89.0373,9.7,22.7,11111222
Shell,ioos:station:wmo:42851:1,2023-12-01T00:29:00Z,28.0373,-89.0373,9.7,22.7,11111222
Shell,ioos:station:wmo:42851:1,2023-12-01T00:39:00Z,28.0373,-89.0373,9.7,22.7,11111222
Shell,ioos:station:wmo:42851:1,2023-12-01T00:49:00Z,28.0373,-89.0373,9.7,22.6,11111222
Shell,ioos:station:wmo:42851:1,2023-12-01T00:59:00Z,28.0373,-89.0373,9.7,22.6,11111222
Shell,ioos:station:wmo:42851:1,2023-12-01T01:09:00Z,28.0373,-89.0373,9.7,22.6,11111222
Shell,ioos:station:wmo:42851:1,2023-12-01T01:19:00Z,28.0373,-89.0373,9.7,22.6,11111222
Shell,ioos:station:wmo:42851:1,2023-12-01T01:29:00Z,28.0373,-89.0373,9.7,22.6,11111222
Shell,ioos:station:wmo:42851:1,2023-12-01T01:39:00Z,28.0373,-89.0373,9.7,22.6,11111222
Shell,ioos:station:wmo:42851:1,2023-12-01T01:49:00Z,28.0373,-89.0373,9.5,22.6,11111222
Shell,ioos:station:wmo:42851:1,2023-12-01T01:59:00Z,28.0373,-89.0373,9.5,22.6,11111222
Shell,ioos:station:wmo:42851:1,2023-12-01T02:09:00Z,28.0373,-89.0373,9.5,22.6,11111222
Shell,ioos:station:wmo:42851:1,2023-12-01T02:19:00Z,28.0373,-89.0373,9.5,22.6,11111222
Shell,ioos:station:wmo:42851:1,2023-12-01T02:29:00Z,28.0373,-89.0373,9.5,22.6,11111222
Shell,ioos:station:wmo:42851:1,2023-12-01T02:39:00Z,28.0373,-89.0373,9.5,22.6,11111222
Shell,ioos:station:wmo:42851:1,2023-12-01T02:49:00Z,28.0373,-89.0373,9.5,22.6,11111222
Shell,ioos:station:wmo:42851:1,2023-12-01T02:59:00Z,28.0373,-89.0373,9.5,22.5,11111222
Shell,ioos:station:wmo:42851:1,2023-12-01T03:09:00Z,28.0373,-89.0373,9.5,22.5,11111222
Shell,ioos:station:wmo:42851:1,2023-12-01T03:19:00Z,28.0373,-89.0373,9.5,22.5,11111222
Shell,ioos:station:wmo:42851:1,2023-12-01T03:29:00Z,28.0373,-89.0373,9.5,22.5,11111222
Shell,ioos:station:wmo:42851:1,2023-12-01T03:39:00Z,28.0373,-89.0373,9.5,22.5,11111222
Shell,ioos:station:wmo:42851:1,2023-12-01T03:49:00Z,28.0373,-89.0373,9.5,22.5,11111222
Shell,ioos:station:wmo:42851:1,2023-12-01T03:59:00Z,28.0373,-89.0373,9.5,22.5,11111222
Shell,ioos:station:wmo:42851:1,2023-12-01T04:09:00Z,28.0373,-89.0373,9.5,22.5,11111222
Shell,ioos:station:wmo:42851:1,2023-12-01T04:19:00Z,28.0373,-89.0373,9.5,22.5,11111222
Shell,ioos:station:wmo:42851:1,2023-12-01T04:29:00Z,28.0373,-89.0373,9.5,22.5,11111222
Shell,ioos:station:wmo:42851:1,2023-12-01T04:39:00Z,28.0373,-89.0373,9.5,22.5,11111222
Shell,ioos:station:wmo:42851:1,2023-12-01T04:49:00Z,28.0373,-89.0373,9.5,22.5,11111222
Shell,ioos:station:wmo:42851:1,2023-12-01T04:59:00Z,28.0373,-89.0373,9.5,22.5,11111222
Shell,ioos:station:wmo:42851:1,2023-12-01T05:09:00Z,28.0373,-89.0373,9.5,22.5,11111222
Shell,ioos:station:wmo:42851:1,2023-12-01T05:19:00Z,28.0373,-89.0373,9.5,22.5,11111222
Shell,ioos:station:wmo:42851:1,2023-12-01T05:29:00Z,28.0373,-89.0373,9.5,22.5,11111222
Shell,ioos:station:wmo:42851:1,2023-12-01T05:39:00Z,28.0373,-89.0373,9.5,22.5,11111222
Shell,ioos:station:wmo:42851:1,2023-12-01T05:49:00Z,28.0373,-89.0373,9.5,22.5,11111222
Shell,ioos:station:wmo:42851:1,2023-12-01T05:59:00Z,28.0373,-89.0373,9.5,22.5,11111222
Shell,ioos:station:wmo:42851:1,2023-12-01T06:09:00Z,28.0373,-89.0373,9.5,22.5,11111222
Shell,ioos:station:wmo:42851:1,2023-12-01T06:19:00Z,28.0373,-89.0373,9.5,22.5,11111222
Shell,ioos:station:wmo:42851:1,2023-12-01T06:29:00Z,28.0373,-89.0373,9.5,22.5,11111222
Shell,ioos:station:wmo:42851:1,2023-12-01T06:39:00Z,28.0373,-89.0373,9.5,22.5,11111222
Shell,ioos:station:wmo:42851:1,2023-12-01T06:49:00Z,28.0373,-89.0373,9.5,22.5,11111222
Shell,ioos:station:wmo:42851:1,2023-12-01T06:59:00Z,28.0373,-89.0373,9.5,22.5,11111222
Shell,ioos:station:wmo:42851:1,2023-12-01T07:10:00Z,28.0373,-89.0373,9.5,22.5,11111222
Shell,ioos:station:wmo:42851:1,2023-12-01T07:20:00Z,28.0373,-89.0373,9.5,22.5,11111222
Shell,ioos:station:wmo:42851:1,2023-12-01T07:30:00Z,28.0373,-89.0373,9.5,22.5,11111222
Shell,ioos:station:wmo:42851:1,2023-12-01T07:40:00Z,28.0373,-89.0373,9.5,22.5,11111222
Shell,ioos:station:wmo:42851:1,2023-12-01T07:50:00Z,28.0373,-89.0373,9.5,22.5,11111222
Shell,ioos:station:wmo:42851:1,2023-12-01T08:00:00Z,28.0373,-89.0373,9.5,22.5,11111222
Shell,ioos:station:wmo:42851:1,2023-12-01T08:10:00Z,28.0373,-89.0373,9.5,22.5,11111222
Shell,ioos:station:wmo:42851:1,2023-12-01T08:20:00Z,28.0373,-89.0373,9.5,22.5,11111222
Shell,ioos:station:wmo:42851:1,2023-12-01T08:30:00Z,28.0373,-89.0373,9.5,22.5,11111222
Shell,ioos:station:wmo:42851:1,2023-12-01T08:40:00Z,28.0373,-89.0373,9.5,22.5,11111222
Shell,ioos:station:wmo:42851:1,2023-12-01T08:50:00Z,28.0373,-89.0373,9.5,22.5,11111222
Shell,ioos:station:wmo:42851:1,2023-12-01T09:00:00Z,28.0373,-89.0373,9.5,22.5,11111222
Shell,ioos:station:wmo:42851:1,2023-12-01T09:10:00Z,28.0373,-89.0373,9.5,22.5,11111222
Shell,ioos:station:wmo:42851:1,2023-12-01T09:20:00Z,28.0373,-89.0373,9.5,22.5,11111222
Shell,ioos:station:wmo:42851:1,2023-12-01T09:30:00Z,28.0373,-89.0373,9.5,22.5,11111222
Shell,ioos:station:wmo:42851:1,2023-12-01T09:40:00Z,28.0373,-89.0373,9.5,22.5,11111222
Shell,ioos:station:wmo:42851:1,2023-12-01T09:50:00Z,28.0373,-89.0373,9.6,22.5,11111222
Shell,ioos:station:wmo:42851:1,2023-12-01T10:00:00Z,28.0373,-89.0373,9.8,22.5,11111222
Shell,ioos:station:wmo:42851:1,2023-12-01T10:10:00Z,28.0373,-89.0373,9.6,22.5,11111222
Shell,ioos:station:wmo:42851:1,2023-12-01T10:20:00Z,28.0373,-89.0373,9.6,22.5,11111222
Shell,ioos:station:wmo:42851:1,2023-12-01T10:30:00Z,28.0373,-89.0373,9.6,22.5,11111222
Shell,ioos:station:wmo:42851:1,2023-12-01T10:40:00Z,28.0373,-89.0373,9.5,22.5,11111222
Shell,ioos:station:wmo:42851:1,2023-12-01T10:50:00Z,28.0373,-89.0373,9.6,22.5,11111222
Shell,ioos:station:wmo:42851:1,2023-12-01T11:00:00Z,28.0373,-89.0373,9.5,22.5,11111222
Shell,ioos:station:wmo:42851:1,2023-12-01T11:10:00Z,28.0373,-89.0373,9.5,22.5,11111222
Shell,ioos:station:wmo:42851:1,2023-12-01T11:20:00Z,28.0373,-89.0373,9.5,22.4,11111222
Shell,ioos:station:wmo:42851:1,2023-12-01T11:30:00Z,28.0373,-89.0373,9.5,22.4,11111222
Shell,ioos:station:wmo:42851:1,2023-12-01T11:40:00Z,28.0373,-89.0373,9.5,22.4,11111222
Shell,ioos:station:wmo:42851:1,2023-12-01T11:50:00Z,28.0373,-89.0373,9.5,22.4,11111222
Shell,ioos:station:wmo:42851:1,2023-12-01T12:00:00Z,28.0373,-89.0373,9.5,22.4,11111222
Shell,ioos:station:wmo:42851:1,2023-12-01T12:10:00Z,28.0373,-89.0373,9.5,22.4,11111222
Shell,ioos:station:wmo:42851:1,2023-12-01T12:20:00Z,28.0373,-89.0373,9.5,22.4,11111222
Shell,ioos:station:wmo:42851:1,2023-12-01T12:30:00Z,28.0373,-89.0373,9.5,22.3,11111222
Shell,ioos:station:wmo:42851:1,2023-12-01T12:40:00Z,28.0373,-89.0373,9.6,22.3,11111222
Shell,ioos:station:wmo:42851:1,2023-12-01T12:50:00Z,28.0373,-89.0373,9.6,22.4,11111222
Shell,ioos:station:wmo:42851:1,2023-12-01T13:00:00Z,28.0373,-89.0373,9.6,22.4,11111222
Shell,ioos:station:wmo:42851:1,2023-12-01T13:10:00Z,28.0373,-89.0373,9.6,22.4,11111222
Shell,ioos:station:wmo:42851:1,2023-12-01T13:20:00Z,28.0373,-89.0373,9.6,22.4,11111222
Shell,ioos:station:wmo:42851:1,2023-12-01T13:30:00Z,28.0373,-89.0373,9.6,22.4,11111222
Shell,ioos:station:wmo:42851:1,2023-12-01T13:40:00Z,28.0373,-89.0373,9.6,22.4,11111222
Shell,ioos:station:wmo:42851:1,2023-12-01T13:50:00Z,28.0373,-89.0373,9.6,22.4,11111222
Shell,ioos:station:wmo:42851:1,2023-12-01T14:00:00Z,28.0373,-89.0373,9.6,22.3,11111222
Shell,ioos:station:wmo:42851:1,2023-12-01T14:10:00Z,28.0373,-89.0373,9.6,22.3,11111222
Shell,ioos:station:wmo:42851:1,2023-12-01T14:20:00Z,28.0373,-89.0373,9.6,22.3,11111222
Shell,ioos:station:wmo:42851:1,2023-12-01T14:31:00Z,28.0373,-89.0373,9.7,22.3,11111222
Shell,ioos:station:wmo:42851:1,2023-12-01T14:41:00Z,28.0373,-89.0373,9.7,22.3,11111222
Shell,ioos:station:wmo:42851:1,2023-12-01T14:51:00Z,28.0373,-89.0373,9.7,22.3,11111222
Shell,ioos:station:wmo:42851:1,2023-12-01T15:01:00Z,28.0373,-89.0373,9.9,22.3,11111222
Shell,ioos:station:wmo:42851:1,2023-12-01T15:11:00Z,28.0373,-89.0373,9.8,22.4,11111222
Shell,ioos:station:wmo:42851:1,2023-12-01T15:21:00Z,28.0373,-89.0373,9.8,22.4,11111222
Shell,ioos:station:wmo:42851:1,2023-12-01T15:31:00Z,28.0373,-89.0373,9.7,22.4,11111222
Shell,ioos:station:wmo:42851:1,2023-12-01T15:41:00Z,28.0373,-89.0373,9.7,22.3,11111222
Shell,ioos:station:wmo:42851:1,2023-12-01T15:51:00Z,28.0373,-89.0373,9.6,22.3,11111222
Shell,ioos:station:wmo:42851:1,2023-12-01T16:01:00Z,28.0373,-89.0373,9.6,22.3,11111222
Shell,ioos:station:wmo:42851:1,2023-12-01T16:11:00Z,28.0373,-89.0373,9.6,22.3,11111222
Shell,ioos:station:wmo:42851:1,2023-12-01T16:21:00Z,28.0373,-89.0373,9.6,22.3,11111222
Shell,ioos:station:wmo:42851:1,2023-12-01T16:31:00Z,28.0373,-89.0373,9.6,22.3,11111222
Shell,ioos:station:wmo:42851:1,2023-12-01T16:41:00Z,28.0373,-89.0373,9.6,22.3,11111222
Shell,ioos:station:wmo:42851:1,2023-12-01T16:51:00Z,28.0373,-89.0373,9.7,22.3,11111222
Shell,ioos:station:wmo:42851:1,2023-12-01T17:01:00Z,28.0373,-89.0373,9.7,22.3,11111222
Shell,ioos:station:wmo:42851:1,2023-12-01T17:11:00Z,28.0373,-89.0373,9.7,22.4,11111222
Shell,ioos:station:wmo:42851:1,2023-12-01T17:21:00Z,28.0373,-89.0373,9.7,22.2,11111222
Shell,ioos:station:wmo:42851:1,2023-12-01T17:31:00Z,28.0373,-89.0373,9.7,22.1,11111222
Shell,ioos:station:wmo:42851:1,2023-12-01T17:41:00Z,28.0373,-89.0373,9.7,22.0,11111222
Shell,ioos:station:wmo:42851:1,2023-12-01T17:51:00Z,28.0373,-89.0373,9.7,22.0,11111222
Shell,ioos:station:wmo:42851:1,2023-12-01T18:01:00Z,28.0373,-89.0373,9.7,22.0,11111222
Shell,ioos:station:wmo:42851:1,2023-12-01T18:11:00Z,28.0373,-89.0373,9.7,22.0,11111222
Shell,ioos:station:wmo:42851:1,2023-12-01T18:21:00Z,28.0373,-89.0373,9.7,22.0,11111222
Shell,ioos:station:wmo:42851:1,2023-12-01T18:31:00Z,28.0373,-89.0373,9.7,22.0,11111222
Shell,ioos:station:wmo:42851:1,2023-12-01T18:41:00Z,28.0373,-89.0373,9.7,22.0,11111222
Shell,ioos:station:wmo:42851:1,2023-12-01T18:51:00Z,28.0373,-89.0373,9.6,22.0,11111222
Shell,ioos:station:wmo:42851:1,2023-12-01T19:01:00Z,28.0373,-89.0373,9.5,22.0,11111222
Shell,ioos:station:wmo:42851:1,2023-12-01T19:11:00Z,28.0373,-89.0373,9.5,22.1,11111222
Shell,ioos:station:wmo:42851:1,2023-12-01T19:21:00Z,28.0373,-89.0373,9.5,22.0,11111222
Shell,ioos:station:wmo:42851:1,2023-12-01T19:31:00Z,28.0373,-89.0373,9.5,22.3,11111222
Shell,ioos:station:wmo:42851:1,2023-12-01T19:41:00Z,28.0373,-89.0373,9.5,22.2,11111222
Shell,ioos:station:wmo:42851:1,2023-12-01T19:51:00Z,28.0373,-89.0373,9.6,22.3,11111222
Shell,ioos:station:wmo:42851:1,2023-12-01T20:01:00Z,28.0373,-89.0373,9.6,22.2,11111222
Shell,ioos:station:wmo:42851:1,2023-12-01T20:11:00Z,28.0373,-89.0373,9.6,22.4,11111222
Shell,ioos:station:wmo:42851:1,2023-12-01T20:21:00Z,28.0373,-89.0373,9.5,22.4,11111222
Shell,ioos:station:wmo:42851:1,2023-12-01T20:31:00Z,28.0373,-89.0373,9.5,22.3,11111222
Shell,ioos:station:wmo:42851:1,2023-12-01T20:41:00Z,28.0373,-89.0373,9.6,22.2,11111222
Shell,ioos:station:wmo:42851:1,2023-12-01T20:51:00Z,28.0373,-89.0373,9.7,22.3,11111222
Shell,ioos:station:wmo:42851:1,2023-12-01T21:01:00Z,28.0373,-89.0373,9.7,22.3,11111222
Shell,ioos:station:wmo:42851:1,2023-12-01T21:11:00Z,28.0373,-89.0373,9.7,22.3,11111222
Shell,ioos:station:wmo:42851:1,2023-12-01T21:21:00Z,28.0373,-89.0373,9.7,22.4,11111222
Shell,ioos:station:wmo:42851:1,2023-12-01T21:31:00Z,28.0373,-89.0373,9.7,22.3,11111222
Shell,ioos:station:wmo:42851:1,2023-12-01T21:42:00Z,28.0373,-89.0373,9.6,22.4,11111222
Shell,ioos:station:wmo:42851:1,2023-12-01T21:52:00Z,28.0373,-89.0373,9.6,22.3,11111222
Shell,ioos:station:wmo:42851:1,2023-12-01T22:02:00Z,28.0373,-89.0373,9.6,22.4,11111222
Shell,ioos:station:wmo:42851:1,2023-12-01T22:12:00Z,28.0373,-89.0373,9.6,22.4,11111222
Shell,ioos:station:wmo:42851:1,2023-12-01T22:22:00Z,28.0373,-89.0373,9.7,22.4,11111222
Shell,ioos:station:wmo:42851:1,2023-12-01T22:32:00Z,28.0373,-89.0373,9.7,22.4,11111222
Shell,ioos:station:wmo:42851:1,2023-12-01T22:42:00Z,28.0373,-89.0373,9.6,22.4,11111222
Shell,ioos:station:wmo:42851:1,2023-12-01T22:52:00Z,28.0373,-89.0373,9.7,22.4,11111222
Shell,ioos:station:wmo:42851:1,2023-12-01T23:02:00Z,28.0373,-89.0373,9.8,22.4,11111222
Shell,ioos:station:wmo:42851:1,2023-12-01T23:12:00Z,28.0373,-89.0373,9.8,22.4,11111222
Shell,ioos:station:wmo:42851:1,2023-12-01T23:22:00Z,28.0373,-89.0373,9.8,22.4,11111222
Shell,ioos:station:wmo:42851:1,2023-12-01T23:32:00Z,28.0373,-89.0373,9.7,22.4,11111222
Shell,ioos:station:wmo:42851:1,2023-12-01T23:42:00Z,28.0373,-89.0373,9.6,22.4,11111222
Shell,ioos:station:wmo:42851:1,2023-12-01T23:52:00Z,28.0373,-89.0373,9.6,22.4,11111222
Shell,ioos:station:wmo:42851:1,2023-12-02T00:02:00Z,28.0373,-89.0373,9.6,22.4,11111222
Shell,ioos:station:wmo:42851:1,2023-12-02T00:12:00Z,28.0373,-89.0373,9.6,22.4,11111222
Shell,ioos:station:wmo:42851:1,2023-12-02T00:22:00Z,28.0373,-89.0373,9.6,22.4,11111222
Shell,ioos:station:wmo:42851:1,2023-12-02T00:32:00Z,28.0373,-89.0373,9.6,22.4,11111222
Shell,ioos:station:wmo:42851:1,2023-12-02T00:42:00Z,28.0373,-89.0373,9.6,22.4,11111222
Shell,ioos:station:wmo:42851:1,2023-12-02T00:52:00Z,28.0373,-89.0373,9.6,22.5,11111222
Shell,ioos:station:wmo:42851:1,2023-12-02T01:02:00Z,28.0373,-89.0373,9.6,22.5,11111222
Shell,ioos:station:wmo:42851:1,2023-12-02T01:12:00Z,28.0373,-89.0373,9.6,22.5,11111222
Shell,ioos:station:wmo:42851:1,2023-12-02T01:22:00Z,28.0373,-89.0373,9.6,22.5,11111222
Shell,ioos:station:wmo:42851:1,2023-12-02T01:32:00Z,28.0373,-89.0373,9.8,22.5,11111222
Shell,ioos:station:wmo:42851:1,2023-12-02T01:42:00Z,28.0373,-89.0373,9.8,22.5,11111222
Shell,ioos:station:wmo:42851:1,2023-12-02T01:52:00Z,28.0373,-89.0373,9.7,22.4,11111222
Shell,ioos:station:wmo:42851:1,2023-12-02T02:02:00Z,28.0373,-89.0373,9.6,22.5,11111222
Shell,ioos:station:wmo:42851:1,2023-12-02T02:12:00Z,28.0373,-89.0373,9.7,22.6,11111222
Shell,ioos:station:wmo:42851:1,2023-12-02T02:22:00Z,28.0373,-89.0373,9.7,22.5,11111222
Shell,ioos:station:wmo:42851:1,2023-12-02T02:32:00Z,28.0373,-89.0373,9.4,22.6,11111222
Shell,ioos:station:wmo:42851:1,2023-12-02T02:42:00Z,28.0373,-89.0373,9.6,22.6,11111222
Shell,ioos:station:wmo:42851:1,2023-12-02T02:52:00Z,28.0373,-89.0373,9.6,22.6,11111222
Shell,ioos:station:wmo:42851:1,2023-12-02T03:02:00Z,28.0373,-89.0373,9.7,22.7,11111222
Shell,ioos:station:wmo:42851:1,2023-12-02T03:12:00Z,28.0373,-89.0373,9.7,22.6,11111222
Shell,ioos:station:wmo:42851:1,2023-12-02T03:22:00Z,28.0373,-89.0373,9.8,22.6,11111222
Shell,ioos:station:wmo:42851:1,2023-12-02T03:32:00Z,28.0373,-89.0373,9.8,22.6,11111222
Shell,ioos:station:wmo:42851:1,2023-12-02T03:42:00Z,28.0373,-89.0373,9.7,22.6,11111222
Shell,ioos:station:wmo:42851:1,2023-12-02T03:52:00Z,28.0373,-89.0373,9.6,22.6,11111222
Shell,ioos:station:wmo:42851:1,2023-12-02T04:02:00Z,28.0373,-89.0373,9.8,22.7,11111222
Shell,ioos:station:wmo:42851:1,2023-12-02T04:12:00Z,28.0373,-89.0373,9.6,22.6,11111222
Shell,ioos:station:wmo:42851:1,2023-12-02T04:22:00Z,28.0373,-89.0373,9.6,22.6,11111222
Shell,ioos:station:wmo:42851:1,2023-12-02T04:32:00Z,28.0373,-89.0373,9.6,22.7,11111222
Shell,ioos:station:wmo:42851:1,2023-12-02T04:42:00Z,28.0373,-89.0373,9.7,22.7,11111222
Shell,ioos:station:wmo:42851:1,2023-12-02T04:52:00Z,28.0373,-89.0373,9.7,22.7,11111222
Shell,ioos:station:wmo:42851:1,2023-12-02T05:03:00Z,28.0373,-89.0373,9.8,22.8,11111222
Shell,ioos:station:wmo:42851:1,2023-12-02T05:13:00Z,28.0373,-89.0373,9.7,22.8,11111222
Shell,ioos:station:wmo:42851:1,2023-12-02T05:23:00Z,28.0373,-89.0373,9.7,22.7,11111222
Shell,ioos:station:wmo:42851:1,2023-12-02T05:33:00Z,28.0373,-89.0373,9.7,22.7,11111222
Shell,ioos:station:wmo:42851:1,2023-12-02T05:43:00Z,28.0373,-89.0373,9.6,22.7,11111222
Shell,ioos:station:wmo:42851:1,2023-12-02T05:53:00Z,28.0373,-89.0373,9.6,22.8,11111222
Shell,ioos:station:wmo:42851:1,2023-12-02T06:03:00Z,28.0373,-89.0373,9.6,22.7,11111222
Shell,ioos:station:wmo:42851:1,2023-12-02T06:13:00Z,28.0373,-89.0373,9.6,22.7,11111222
Shell,ioos:station:wmo:42851:1,2023-12-02T06:23:00Z,28.0373,-89.0373,9.6,22.8,11111222
Shell,ioos:station:wmo:42851:1,2023-12-02T06:33:00Z,28.0373,-89.0373,9.6,22.7,11111222
Shell,ioos:station:wmo:42851:1,2023-12-02T06:43:00Z,28.0373,-89.0373,9.6,22.7,11111222
Shell,ioos:station:wmo:42851:1,2023-12-02T06:53:00Z,28.0373,-89.0373,9.6,22.6,11111222
Shell,ioos:station:wmo:42851:1,2023-12-02T07:03:00Z,28.0373,-89.0373,9.7,22.6,11111222
Shell,ioos:station:wmo:42851:1,2023-12-02T07:13:00Z,28.0373,-89.0373,9.6,22.7,11111222
Shell,ioos:station:wmo:42851:1,2023-12-02T07:23:00Z,28.0373,-89.0373,9.6,22.6,11111222
Shell,ioos:station:wmo:42851:1,2023-12-02T07:33:00Z,28.0373,-89.0373,9.6,22.6,11111222
Shell,ioos:station:wmo:42851:1,2023-12-02T07:43:00Z,28.0373,-89.0373,9.5,22.5,11111222
Shell,ioos:station:wmo:42851:1,2023-12-02T07:53:00Z,28.0373,-89.0373,9.6,22.5,11111222
Shell,ioos:station:wmo:42851:1,2023-12-02T08:03:00Z,28.0373,-89.0373,9.6,22.5,11111222
Shell,ioos:station:wmo:42851:1,2023-12-02T08:13:00Z,28.0373,-89.0373,9.6,22.5,11111222
Shell,ioos:station:wmo:42851:1,2023-12-02T08:23:00Z,28.0373,-89.0373,9.6,22.5,11111222
Shell,ioos:station:wmo:42851:1,2023-12-02T08:33:00Z,28.0373,-89.0373,9.5,22.5,11111222
Shell,ioos:station:wmo:42851:1,2023-12-02T08:43:00Z,28.0373,-89.0373,9.6,22.5,11111222
Shell,ioos:station:wmo:42851:1,2023-12-02T08:53:00Z,28.0373,-89.0373,9.5,22.5,11111222
Shell,ioos:station:wmo:42851:1,2023-12-02T09:03:00Z,28.0373,-89.0373,9.5,22.5,11111222
Shell,ioos:station:wmo:42851:1,2023-12-02T09:13:00Z,28.0373,-89.0373,9.5,22.4,11111222
Shell,ioos:station:wmo:42851:1,2023-12-02T09:23:00Z,28.0373,-89.0373,9.5,22.3,11111222
Shell,ioos:station:wmo:42851:1,2023-12-02T09:33:00Z,28.0373,-89.0373,9.4,22.2,11111222
Shell,ioos:station:wmo:42851:1,2023-12-02T09:43:00Z,28.0373,-89.0373,9.3,22.2,11111222
Shell,ioos:station:wmo:42851:1,2023-12-02T09:53:00Z,28.0373,-89.0373,9.5,22.1,11111222
Shell,ioos:station:wmo:42851:1,2023-12-02T10:03:00Z,28.0373,-89.0373,9.5,22.2,11111222
Shell,ioos:station:wmo:42851:1,2023-12-02T10:13:00Z,28.0373,-89.0373,9.5,22.1,11111222
Shell,ioos:station:wmo:42851:1,2023-12-02T10:23:00Z,28.0373,-89.0373,9.5,22.1,11111222
Shell,ioos:station:wmo:42851:1,2023-12-02T10:33:00Z,28.0373,-89.0373,9.5,22.0,11111222
Shell,ioos:station:wmo:42851:1,2023-12-02T10:43:00Z,28.0373,-89.0373,9.5,22.2,11111222
Shell,ioos:station:wmo:42851:1,2023-12-02T10:53:00Z,28.0373,-89.0373,9.4,22.0,11111222
Shell,ioos:station:wmo:42851:1,2023-12-02T11:03:00Z,28.0373,-89.0373,9.5,22.0,11111222
Shell,ioos:station:wmo:42851:1,2023-12-02T11:13:00Z,28.0373,-89.0373,9.4,21.9,11111222
Shell,ioos:station:wmo:42851:1,2023-12-02T11:23:00Z,28.0373,-89.0373,9.5,22.0,11111222
Shell,ioos:station:wmo:42851:1,2023-12-02T11:33:00Z,28.0373,-89.0373,9.5,22.1,11111222
Shell,ioos:station:wmo:42851:1,2023-12-02T11:43:00Z,28.0373,-89.0373,9.5,21.9,11111222
Shell,ioos:station:wmo:42851:1,2023-12-02T11:53:00Z,28.0373,-89.0373,9.5,21.9,11111222
Shell,ioos:station:wmo:42851:1,2023-12-02T12:03:00Z,28.0373,-89.0373,9.5,21.8,11111222
Shell,ioos:station:wmo:42851:1,2023-12-02T12:14:00Z,28.0373,-89.0373,9.5,21.7,11111222
Shell,ioos:station:wmo:42851:1,2023-12-02T12:24:00Z,28.0373,-89.0373,9.5,21.7,11111222
Shell,ioos:station:wmo:42851:1,2023-12-02T12:34:00Z,28.0373,-89.0373,9.5,21.8,11111222
Shell,ioos:station:wmo:42851:1,2023-12-02T12:44:00Z,28.0373,-89.0373,9.5,21.6,11111222
Shell,ioos:station:wmo:42851:1,2023-12-02T12:54:00Z,28.0373,-89.0373,9.5,22.0,11111222
Shell,ioos:station:wmo:42851:1,2023-12-02T13:04:00Z,28.0373,-89.0373,9.5,21.6,11111222
Shell,ioos:station:wmo:42851:1,2023-12-02T13:14:00Z,28.0373,-89.0373,9.5,21.7,11111222
Shell,ioos:station:wmo:42851:1,2023-12-02T13:24:00Z,28.0373,-89.0373,9.5,21.9,11111222
Shell,ioos:station:wmo:42851:1,2023-12-02T13:34:00Z,28.0373,-89.0373,9.5,21.8,11111222
Shell,ioos:station:wmo:42851:1,2023-12-02T13:44:00Z,28.0373,-89.0373,9.5,21.5,11111222
Shell,ioos:station:wmo:42851:1,2023-12-02T13:54:00Z,28.0373,-89.0373,9.5,21.5,11111222
Shell,ioos:station:wmo:42851:1,2023-12-02T14:04:00Z,28.0373,-89.0373,9.5,21.9,11111222
Shell,ioos:station:wmo:42851:1,2023-12-02T14:14:00Z,28.0373,-89.0373,9.4,22.1,11111222
Shell,ioos:station:wmo:42851:1,2023-12-02T14:24:00Z,28.0373,-89.0373,9.4,22.0,11111222
Shell,ioos:station:wmo:42851:1,2023-12-02T14:34:00Z,28.0373,-89.0373,9.5,22.0,11111222
Shell,ioos:station:wmo:42851:1,2023-12-02T14:44:00Z,28.0373,-89.0373,9.5,22.1,11111222
Shell,ioos:station:wmo:42851:1,2023-12-02T14:54:00Z,28.0373,-89.0373,9.5,22.2,11111222
Shell,ioos:station:wmo:42851:1,2023-12-02T15:04:00Z,28.0373,-89.0373,9.5,22.2,11111222
Shell,ioos:station:wmo:42851:1,2023-12-02T15:14:00Z,28.0373,-89.0373,9.4,22.3,11111222
Shell,ioos:station:wmo:42851:1,2023-12-02T15:24:00Z,28.0373,-89.0373,9.6,22.2,11111222
Shell,ioos:station:wmo:42851:1,2023-12-02T15:34:00Z,28.0373,-89.0373,9.4,22.2,11111222
Shell,ioos:station:wmo:42851:1,2023-12-02T15:44:00Z,28.0373,-89.0373,9.4,22.1,11111222
Shell,ioos:station:wmo:42851:1,2023-12-02T15:54:00Z,28.0373,-89.0373,9.5,21.9,11111222
Shell,ioos:station:wmo:42851:1,2023-12-02T16:04:00Z,28.0373,-89.0373,9.4,21.9,11111222
Shell,ioos:station:wmo:42851:1,2023-12-02T16:14:00Z,28.0373,-89.0373,9.5,21.7,11111222
Shell,ioos:station:wmo:42851:1,2023-12-02T16:24:00Z,28.0373,-89.0373,9.3,21.6,11111222
Shell,ioos:station:wmo:42851:1,2023-12-02T16:34:00Z,28.0373,-89.0373,9.3,21.6,11111222
Shell,ioos:station:wmo:42851:1,2023-12-02T16:44:00Z,28.0373,-89.0373,9.4,21.5,11111222
Shell,ioos:station:wmo:42851:1,2023-12-02T16:54:00Z,28.0373,-89.0373,9.7,21.5,11111222
Shell,ioos:station:wmo:42851:1,2023-12-02T17:04:00Z,28.0373,-89.0373,9.5,21.4,11111222
Shell,ioos:station:wmo:42851:1,2023-12-02T17:14:00Z,28.0373,-89.0373,9.5,21.6,11111222
Shell,ioos:station:wmo:42851:1,2023-12-02T17:24:00Z,28.0373,-89.0373,9.5,21.6,11111222
Shell,ioos:station:wmo:42851:1,2023-12-02T17:34:00Z,28.0373,-89.0373,9.5,21.7,11111222
Shell,ioos:station:wmo:42851:1,2023-12-02T17:44:00Z,28.0373,-89.0373,9.4,21.6,11111222
Shell,ioos:station:wmo:42851:1,2023-12-02T17:54:00Z,28.0373,-89.0373,9.4,21.7,11111222
Shell,ioos:station:wmo:42851:1,2023-12-02T18:04:00Z,28.0373,-89.0373,9.4,22.0,11111222
Shell,ioos:station:wmo:42851:1,2023-12-02T18:14:00Z,28.0373,-89.0373,9.4,22.0,11111222
Shell,ioos:station:wmo:42851:1,2023-12-02T18:24:00Z,28.0373,-89.0373,9.4,22.1,11111222
Shell,ioos:station:wmo:42851:1,2023-12-02T18:34:00Z,28.0373,-89.0373,9.4,22.3,11111222
Shell,ioos:station:wmo:42851:1,2023-12-02T18:44:00Z,28.0373,-89.0373,9.4,22.4,11111222
Shell,ioos:station:wmo:42851:1,2023-12-02T18:54:00Z,28.0373,-89.0373,9.5,22.2,11111222
Shell,ioos:station:wmo:42851:1,2023-12-02T19:04:00Z,28.0373,-89.0373,9.6,22.2,11111222
Shell,ioos:station:wmo:42851:1,2023-12-02T19:14:00Z,28.0373,-89.0373,9.6,22.4,11111222
Shell,ioos:station:wmo:42851:1,2023-12-02T19:24:00Z,28.0373,-89.0373,9.5,22.5,11111222
Shell,ioos:station:wmo:42851:1,2023-12-02T19:35:00Z,28.0373,-89.0373,9.6,22.5,11111222
Shell,ioos:station:wmo:42851:1,2023-12-02T19:45:00Z,28.0373,-89.0373,9.6,22.6,11111222
Shell,ioos:station:wmo:42851:1,2023-12-02T19:55:00Z,28.0373,-89.0373,9.6,22.5,11111222
Shell,ioos:station:wmo:42851:1,2023-12-02T20:05:00Z,28.0373,-89.0373,9.6,22.5,11111222
Shell,ioos:station:wmo:42851:1,2023-12-02T20:15:00Z,28.0373,-89.0373,9.6,22.5,11111222
Shell,ioos:station:wmo:42851:1,2023-12-02T20:25:00Z,28.0373,-89.0373,9.6,22.5,11111222
Shell,ioos:station:wmo:42851:1,2023-12-02T20:35:00Z,28.0373,-89.0373,9.6,22.4,11111222
Shell,ioos:station:wmo:42851:1,2023-12-02T20:45:00Z,28.0373,-89.0373,9.5,22.4,11111222
Shell,ioos:station:wmo:42851:1,2023-12-02T20:55:00Z,28.0373,-89.0373,9.5,22.4,11111222
Shell,ioos:station:wmo:42851:1,2023-12-02T21:05:00Z,28.0373,-89.0373,9.5,22.4,11111222
Shell,ioos:station:wmo:42851:1,2023-12-02T21:15:00Z,28.0373,-89.0373,9.5,22.2,11111222